TimeEDT,TemperatureF,Dew PointF,Humidity,Sea Level PressureIn,VisibilityMPH,Wind Direction,Wind SpeedMPH,Gust SpeedMPH,PrecipitationIn,Events,Conditions,WindDirDegrees,DateUTC
12:52 AM,64.9,61.0,87,29.81,5.0,NE,8.1,-,N/A,,Overcast,50,2013-06-07 04:52:00
1:52 AM,64.0,60.1,87,29.81,6.0,NE,9.2,-,N/A,,Overcast,40,2013-06-07 05:52:00
2:52 AM,63.0,59.0,87,29.81,6.0,North,5.8,-,N/A,,Partly Cloudy,10,2013-06-07 06:52:00
3:32 AM,62.6,60.8,94,29.82,5.0,NE,6.9,-,N/A,,Overcast,50,2013-06-07 07:32:00
3:52 AM,63.0,59.0,87,29.80,5.0,NNE,9.2,-,N/A,,Overcast,30,2013-06-07 07:52:00
4:52 AM,63.0,59.0,87,29.80,5.0,NNE,8.1,-,N/A,,Overcast,30,2013-06-07 08:52:00
5:52 AM,62.1,59.0,90,29.81,4.0,NE,9.2,-,N/A,,Overcast,40,2013-06-07 09:52:00
6:33 AM,60.8,59.0,94,29.82,2.5,North,9.2,-,N/A,,Overcast,10,2013-06-07 10:33:00
6:52 AM,60.1,57.9,93,29.81,2.5,North,10.4,-,N/A,,Overcast,10,2013-06-07 10:52:00
6:55 AM,60.8,57.2,88,29.83,1.5,NNE,9.2,-,N/A,,Overcast,20,2013-06-07 10:55:00
7:22 AM,60.8,57.2,88,29.83,1.5,NE,6.9,-,N/A,,Overcast,50,2013-06-07 11:22:00
7:52 AM,61.0,57.0,87,29.82,3.0,NE,8.1,-,N/A,,Overcast,40,2013-06-07 11:52:00
8:52 AM,61.0,57.0,87,29.82,3.0,ENE,9.2,-,N/A,,Overcast,70,2013-06-07 12:52:00
9:10 AM,62.6,57.2,82,29.84,3.0,ENE,5.8,-,N/A,,Haze,60,2013-06-07 13:10:00
9:42 AM,64.4,57.2,77,29.85,3.0,NE,4.6,-,N/A,,Haze,40,2013-06-07 13:42:00
9:52 AM,64.9,57.0,75,29.83,3.0,ENE,6.9,-,N/A,,Haze,60,2013-06-07 13:52:00
10:52 AM,68.0,57.0,68,29.82,8.0,North,4.6,-,N/A,,Mostly Cloudy,10,2013-06-07 14:52:00
11:52 AM,71.1,57.0,61,29.83,8.0,NNW,10.4,-,N/A,,Mostly Cloudy,340,2013-06-07 15:52:00
12:52 PM,71.1,57.0,61,29.83,8.0,NE,5.8,-,N/A,,Mostly Cloudy,40,2013-06-07 16:52:00
1:52 PM,73.0,55.0,53,29.81,9.0,North,9.2,-,N/A,,Mostly Cloudy,360,2013-06-07 17:52:00
2:52 PM,75.0,57.0,53,29.81,10.0,NNW,8.1,-,N/A,,Scattered Clouds,330,2013-06-07 18:52:00
3:52 PM,75.9,57.0,52,29.80,10.0,NW,8.1,-,N/A,,Scattered Clouds,320,2013-06-07 19:52:00
4:52 PM,75.0,57.0,53,29.80,10.0,NNW,11.5,-,N/A,,Scattered Clouds,340,2013-06-07 20:52:00
5:52 PM,73.9,57.0,55,29.80,10.0,NNW,8.1,-,N/A,,Mostly Cloudy,340,2013-06-07 21:52:00
6:52 PM,73.0,57.0,57,29.81,9.0,North,5.8,-,N/A,,Scattered Clouds,350,2013-06-07 22:52:00
7:52 PM,73.0,57.0,57,29.81,8.0,North,5.8,-,N/A,,Scattered Clouds,350,2013-06-07 23:52:00
8:52 PM,71.1,57.9,63,29.83,8.0,North,4.6,-,N/A,,Overcast,360,2013-06-08 00:52:00
9:52 PM,71.1,55.9,59,29.83,8.0,ENE,5.8,-,N/A,,Overcast,70,2013-06-08 01:52:00
10:52 PM,70.0,55.9,61,29.86,9.0,East,6.9,-,N/A,,Mostly Cloudy,90,2013-06-08 02:52:00
11:52 PM,66.9,57.0,70,29.87,7.0,East,12.7,-,N/A,,Overcast,80,2013-06-08 03:52:00